Time,TemperatureF,DewpointF,PressureIn,WindDirection,WindDirectionDegrees,WindSpeedMPH,WindSpeedGustMPH,Humidity,HourlyPrecipIn,Conditions,Clouds,dailyrainin,SoftwareType,DateUTC
2013-04-19 00:03:00,23.1,15.4,26.88,West,270,0.0,0.0,72,0.00,,,0.00,VWS V14.01,2013-04-19 06:03:00,
2013-04-19 00:08:00,23.5,15.8,26.88,West,270,0.0,0.0,72,0.00,,,0.00,VWS V14.01,2013-04-19 06:08:00,
2013-04-19 00:13:00,23.7,16.0,26.87,West,270,0.0,0.0,72,0.00,,,0.00,VWS V14.01,2013-04-19 06:13:00,
2013-04-19 00:18:00,24.0,16.6,26.88,WNW,292,0.0,0.0,73,0.00,,,0.00,VWS V14.01,2013-04-19 06:18:00,
2013-04-19 00:23:00,24.2,16.8,26.88,NW,315,0.0,0.0,73,0.00,,,0.00,VWS V14.01,2013-04-19 06:23:00,
2013-04-19 00:28:00,24.4,17.0,26.88,NW,315,0.0,1.5,73,0.00,,,0.00,VWS V14.01,2013-04-19 06:28:00,
2013-04-19 00:33:00,24.9,17.5,26.88,NW,315,0.0,0.0,73,0.00,,,0.00,VWS V14.01,2013-04-19 06:33:00,
2013-04-19 00:38:00,25.1,17.7,26.88,NW,315,0.0,0.0,73,0.00,,,0.00,VWS V14.01,2013-04-19 06:38:00,
2013-04-19 00:43:00,25.3,17.9,26.88,NW,315,0.0,0.0,73,0.00,,,0.00,VWS V14.01,2013-04-19 06:43:00,
2013-04-19 00:48:00,25.8,18.0,26.88,NNW,338,1.5,2.4,72,0.00,,,0.00,VWS V14.01,2013-04-19 06:48:00,
2013-04-19 00:53:00,26.2,18.4,26.86,North,0,0.0,2.4,72,0.00,,,0.00,VWS V14.01,2013-04-19 06:53:00,
2013-04-19 00:58:00,26.4,18.6,26.86,North,0,0.0,2.4,72,0.00,,,0.00,VWS V14.01,2013-04-19 06:58:00,
2013-04-19 01:03:00,26.7,18.9,26.86,NE,45,0.0,0.0,72,0.00,,,0.00,VWS V14.01,2013-04-19 07:03:00,
2013-04-19 01:08:00,26.9,19.1,26.86,NNE,22,0.0,0.0,72,0.00,,,0.00,VWS V14.01,2013-04-19 07:08:00,
2013-04-19 01:13:00,27.1,19.3,26.86,NE,45,1.7,2.9,72,0.00,,,0.00,VWS V14.01,2013-04-19 07:13:00,
2013-04-19 01:18:00,27.5,19.4,26.86,NNE,22,3.1,3.1,71,0.00,,,0.00,VWS V14.01,2013-04-19 07:18:00,
2013-04-19 01:23:00,27.6,19.4,26.87,NE,45,0.0,3.1,71,0.00,,,0.00,VWS V14.01,2013-04-19 07:23:00,
2013-04-19 01:29:00,28.0,19.8,26.86,NNW,338,2.6,3.1,71,0.00,,,0.00,VWS V14.01,2013-04-19 07:29:00,
2013-04-19 01:34:00,28.5,20.6,26.87,NE,45,5.1,5.1,72,0.00,,,0.00,VWS V14.01,2013-04-19 07:34:00,
2013-04-19 01:39:00,29.1,21.9,26.87,North,0,4.4,5.1,74,0.00,,,0.00,VWS V14.01,2013-04-19 07:39:00,
2013-04-19 01:44:00,29.6,22.4,26.88,NNW,338,2.4,5.8,74,0.00,,,0.00,VWS V14.01,2013-04-19 07:44:00,
2013-04-19 01:49:00,30.0,22.7,26.88,NNW,338,2.0,5.3,74,0.00,,,0.00,VWS V14.01,2013-04-19 07:49:00,
2013-04-19 01:54:00,30.2,23.2,26.87,NW,315,0.0,5.3,75,0.00,,,0.00,VWS V14.01,2013-04-19 07:54:00,
2013-04-19 01:59:00,30.2,23.2,26.87,NW,315,0.0,5.3,75,0.00,,,0.00,VWS V14.01,2013-04-19 07:59:00,
2013-04-19 02:04:00,30.2,23.2,26.87,NW,315,0.0,0.0,75,0.00,,,0.00,VWS V14.01,2013-04-19 08:04:00,
2013-04-19 02:09:00,30.2,23.2,26.87,South,180,0.0,0.0,75,0.00,,,0.00,VWS V14.01,2013-04-19 08:09:00,
2013-04-19 02:14:00,30.0,23.0,26.87,South,180,0.0,0.0,75,0.00,,,0.00,VWS V14.01,2013-04-19 08:14:00,
2013-04-19 02:19:00,30.0,23.0,26.87,South,180,0.0,0.0,75,0.00,,,0.00,VWS V14.01,2013-04-19 08:19:00,
2013-04-19 02:24:00,30.2,23.2,26.87,SSW,202,0.0,0.0,75,0.00,,,0.00,VWS V14.01,2013-04-19 08:24:00,
2013-04-19 02:29:00,30.0,23.4,26.86,SW,225,0.0,0.0,76,0.00,,,0.00,VWS V14.01,2013-04-19 08:29:00,
2013-04-19 02:34:00,30.0,23.7,26.86,WSW,248,2.2,2.2,77,0.00,,,0.00,VWS V14.01,2013-04-19 08:34:00,
2013-04-19 02:39:00,30.0,24.0,26.86,WSW,248,0.0,2.4,78,0.00,,,0.00,VWS V14.01,2013-04-19 08:39:00,
2013-04-19 02:44:00,30.0,24.3,26.86,WSW,248,0.0,2.4,79,0.00,,,0.00,VWS V14.01,2013-04-19 08:44:00,
2013-04-19 02:49:00,30.0,24.3,26.85,WSW,248,0.0,1.3,79,0.00,,,0.00,VWS V14.01,2013-04-19 08:49:00,
2013-04-19 02:54:00,29.8,24.1,26.85,WSW,248,0.0,1.3,79,0.00,,,0.00,VWS V14.01,2013-04-19 08:54:00,
2013-04-19 02:59:00,29.4,23.7,26.85,WSW,248,0.0,1.3,79,0.00,,,0.00,VWS V14.01,2013-04-19 08:59:00,
2013-04-19 03:04:00,29.1,23.4,26.85,WSW,248,0.0,0.0,79,0.00,,,0.00,VWS V14.01,2013-04-19 09:04:00,
2013-04-19 03:09:00,28.9,23.2,26.85,WSW,248,0.0,0.0,79,0.00,,,0.00,VWS V14.01,2013-04-19 09:09:00,
2013-04-19 03:14:00,28.5,22.8,26.85,WSW,248,0.0,0.0,79,0.00,,,0.00,VWS V14.01,2013-04-19 09:14:00,
2013-04-19 03:19:00,28.5,22.8,26.85,WSW,248,0.0,0.0,79,0.00,,,0.00,VWS V14.01,2013-04-19 09:19:00,
2013-04-19 03:24:00,28.2,22.5,26.84,WSW,248,0.0,0.0,79,0.00,,,0.00,VWS V14.01,2013-04-19 09:24:00,
2013-04-19 03:29:00,28.2,22.8,26.85,WSW,248,0.0,0.0,80,0.00,,,0.00,VWS V14.01,2013-04-19 09:29:00,
2013-04-19 03:34:00,28.2,22.8,26.84,WSW,248,0.0,0.0,80,0.00,,,0.00,VWS V14.01,2013-04-19 09:34:00,
2013-04-19 03:39:00,28.4,23.0,26.85,North,0,0.0,0.0,80,0.00,,,0.00,VWS V14.01,2013-04-19 09:39:00,
2013-04-19 03:44:00,28.4,23.0,26.84,North,0,0.0,0.0,80,0.00,,,0.00,VWS V14.01,2013-04-19 09:44:00,
2013-04-19 03:49:00,28.2,23.1,26.85,NNW,338,0.0,0.0,81,0.00,,,0.00,VWS V14.01,2013-04-19 09:49:00,
2013-04-19 03:54:00,28.2,23.1,26.85,NNW,338,0.0,0.0,81,0.00,,,0.00,VWS V14.01,2013-04-19 09:54:00,
2013-04-19 03:59:00,28.2,23.1,26.84,West,270,0.0,0.0,81,0.00,,,0.00,VWS V14.01,2013-04-19 09:59:00,
2013-04-19 04:04:00,28.0,22.9,26.84,West,270,0.0,0.0,81,0.00,,,0.00,VWS V14.01,2013-04-19 10:04:00,
2013-04-19 04:09:00,28.0,22.9,26.84,West,270,0.0,0.0,81,0.00,,,0.00,VWS V14.01,2013-04-19 10:09:00,
2013-04-19 04:15:00,27.6,22.5,26.84,West,270,0.0,0.0,81,0.00,,,0.00,VWS V14.01,2013-04-19 10:15:00,
2013-04-19 04:20:00,27.5,22.5,26.84,West,270,0.0,0.0,81,0.00,,,0.00,VWS V14.01,2013-04-19 10:20:00,
2013-04-19 04:25:00,27.3,22.2,26.84,WNW,292,8.0,8.0,81,0.00,,,0.00,VWS V14.01,2013-04-19 10:25:00,
2013-04-19 04:30:00,27.3,22.2,26.84,NNW,338,7.3,8.0,81,0.00,,,0.00,VWS V14.01,2013-04-19 10:30:00,
2013-04-19 04:35:00,28.2,23.7,26.84,NNW,338,14.9,14.9,83,0.00,,,0.00,VWS V14.01,2013-04-19 10:35:00,
2013-04-19 04:40:00,29.6,25.6,26.84,ENE,68,8.9,17.0,85,0.00,,,0.00,VWS V14.01,2013-04-19 10:40:00,
2013-04-19 04:45:00,30.5,26.5,26.84,North,0,4.6,17.0,85,0.00,,,0.00,VWS V14.01,2013-04-19 10:45:00,
2013-04-19 04:50:00,31.1,27.1,26.84,NNW,338,12.0,12.0,85,0.00,,,0.00,VWS V14.01,2013-04-19 10:50:00,
2013-04-19 04:55:00,31.6,27.6,26.85,West,270,6.0,12.0,85,0.00,,,0.00,VWS V14.01,2013-04-19 10:55:00,
2013-04-19 05:00:00,32.1,27.8,26.84,North,0,4.6,12.0,84,0.00,,,0.00,VWS V14.01,2013-04-19 11:00:00,
2013-04-19 05:05:00,32.5,28.2,26.84,WNW,292,6.0,6.0,84,0.00,,,0.00,VWS V14.01,2013-04-19 11:05:00,
2013-04-19 05:10:00,32.7,28.4,26.85,NNE,22,6.4,6.7,84,0.00,,,0.00,VWS V14.01,2013-04-19 11:10:00,
2013-04-19 05:15:00,32.7,28.1,26.84,WNW,292,6.9,6.9,83,0.00,,,0.00,VWS V14.01,2013-04-19 11:15:00,
2013-04-19 05:20:00,32.9,28.3,26.84,NNW,338,6.9,10.7,83,0.00,,,0.00,VWS V14.01,2013-04-19 11:20:00,
2013-04-19 05:25:00,33.0,28.4,26.84,NNE,22,5.5,10.7,83,0.00,,,0.00,VWS V14.01,2013-04-19 11:25:00,
2013-04-19 05:30:00,33.2,28.3,26.84,NNE,22,5.3,5.3,82,0.00,,,0.00,VWS V14.01,2013-04-19 11:30:00,
2013-04-19 05:35:00,33.2,28.3,26.85,WNW,292,4.0,7.3,82,0.00,,,0.00,VWS V14.01,2013-04-19 11:35:00,
2013-04-19 05:40:00,33.6,28.7,26.85,WNW,292,6.4,8.0,82,0.00,,,0.00,VWS V14.01,2013-04-19 11:40:00,
2013-04-19 05:45:00,33.6,28.7,26.85,North,0,6.9,6.9,82,0.00,,,0.00,VWS V14.01,2013-04-19 11:45:00,
2013-04-19 05:50:00,33.6,28.7,26.85,NW,315,5.3,9.1,82,0.00,,,0.00,VWS V14.01,2013-04-19 11:50:00,
2013-04-19 05:55:00,33.8,28.9,26.85,North,0,3.5,10.5,82,0.00,,,0.00,VWS V14.01,2013-04-19 11:55:00,
2013-04-19 06:00:00,33.9,29.0,26.85,North,0,6.0,6.0,82,0.00,,,0.00,VWS V14.01,2013-04-19 12:00:00,
2013-04-19 06:05:00,34.1,29.2,26.85,NNW,338,4.2,11.4,82,0.00,,,0.00,VWS V14.01,2013-04-19 12:05:00,
2013-04-19 06:10:00,34.3,29.1,26.85,WNW,292,3.8,11.4,81,0.00,,,0.00,VWS V14.01,2013-04-19 12:10:00,
2013-04-19 06:15:00,34.5,29.3,26.85,North,0,8.0,8.0,81,0.00,,,0.00,VWS V14.01,2013-04-19 12:15:00,
2013-04-19 06:20:00,34.8,29.3,26.85,North,0,11.8,11.8,80,0.00,,,0.00,VWS V14.01,2013-04-19 12:20:00,
2013-04-19 06:26:00,34.8,29.3,26.85,North,0,11.1,14.3,80,0.00,,,0.00,VWS V14.01,2013-04-19 12:26:00,
2013-04-19 06:31:00,35.2,29.4,26.86,WNW,292,10.0,10.0,79,0.00,,,0.00,VWS V14.01,2013-04-19 12:31:00,
2013-04-19 06:36:00,35.4,29.5,26.86,North,0,11.8,11.8,79,0.00,,,0.00,VWS V14.01,2013-04-19 12:36:00,
2013-04-19 06:41:00,35.7,29.8,26.86,NW,315,7.6,11.8,79,0.00,,,0.00,VWS V14.01,2013-04-19 12:41:00,
2013-04-19 06:46:00,35.7,29.8,26.85,NNW,338,11.8,11.8,79,0.00,,,0.00,VWS V14.01,2013-04-19 12:46:00,
2013-04-19 06:51:00,35.9,30.3,26.86,North,0,9.6,12.0,80,0.00,,,0.00,VWS V14.01,2013-04-19 12:51:00,
2013-04-19 06:56:00,36.1,30.5,26.86,West,270,9.6,12.0,80,0.00,,,0.00,VWS V14.01,2013-04-19 12:56:00,
2013-04-19 07:01:00,36.1,30.5,26.86,West,270,8.2,8.2,80,0.00,,,0.00,VWS V14.01,2013-04-19 13:01:00,
2013-04-19 07:06:00,36.3,30.7,26.86,NNW,338,6.2,9.1,80,0.00,,,0.00,VWS V14.01,2013-04-19 13:06:00,
2013-04-19 07:11:00,36.5,30.9,26.86,NW,315,6.9,9.1,80,0.00,,,0.00,VWS V14.01,2013-04-19 13:11:00,
2013-04-19 07:16:00,36.6,31.0,26.86,WNW,292,3.3,12.7,80,0.00,,,0.00,VWS V14.01,2013-04-19 13:16:00,
2013-04-19 07:21:00,36.8,31.2,26.86,WNW,292,7.1,12.7,80,0.00,,,0.00,VWS V14.01,2013-04-19 13:21:00,
2013-04-19 07:26:00,37.0,31.4,26.85,North,0,10.0,12.7,80,0.00,,,0.00,VWS V14.01,2013-04-19 13:26:00,
2013-04-19 07:31:00,37.0,31.1,26.86,NW,315,9.8,9.8,79,0.00,,,0.00,VWS V14.01,2013-04-19 13:31:00,
2013-04-19 07:36:00,37.0,31.1,26.86,North,0,9.6,11.8,79,0.00,,,0.00,VWS V14.01,2013-04-19 13:36:00,
2013-04-19 07:41:00,37.2,31.3,26.86,North,0,3.3,11.8,79,0.00,,,0.00,VWS V14.01,2013-04-19 13:41:00,
2013-04-19 07:46:00,37.4,31.5,26.86,NNE,22,9.8,9.8,79,0.00,,,0.00,VWS V14.01,2013-04-19 13:46:00,
2013-04-19 07:51:00,37.5,31.3,26.86,SW,225,5.5,9.8,78,0.00,,,0.00,VWS V14.01,2013-04-19 13:51:00,
2013-04-19 07:56:00,37.5,31.3,26.86,NNW,338,6.7,9.8,78,0.00,,,0.00,VWS V14.01,2013-04-19 13:56:00,
2013-04-19 08:01:00,37.4,31.2,26.87,East,90,9.8,9.8,78,0.00,,,0.00,VWS V14.01,2013-04-19 14:01:00,
2013-04-19 08:06:00,37.0,31.1,26.87,NNW,338,12.3,12.3,79,0.00,,,0.00,VWS V14.01,2013-04-19 14:06:00,
2013-04-19 08:11:00,36.1,30.2,26.87,NNW,338,6.2,12.3,79,0.00,,,0.00,VWS V14.01,2013-04-19 14:11:00,
2013-04-19 08:16:00,36.1,30.5,26.87,North,0,10.2,10.2,80,0.00,,,0.00,VWS V14.01,2013-04-19 14:16:00,
2013-04-19 08:21:00,36.3,30.7,26.87,WNW,292,6.0,12.3,80,0.00,,,0.00,VWS V14.01,2013-04-19 14:21:00,
2013-04-19 08:26:00,36.6,31.0,26.87,NW,315,8.0,12.3,80,0.00,,,0.00,VWS V14.01,2013-04-19 14:26:00,
2013-04-19 08:31:00,36.8,31.2,26.88,NNW,338,5.8,9.3,80,0.00,,,0.00,VWS V14.01,2013-04-19 14:31:00,
2013-04-19 08:36:00,37.0,31.4,26.87,NNW,338,8.9,9.8,80,0.00,,,0.00,VWS V14.01,2013-04-19 14:36:00,
2013-04-19 08:42:00,37.2,31.6,26.87,NNW,338,3.8,9.8,80,0.00,,,0.00,VWS V14.01,2013-04-19 14:42:00,
2013-04-19 08:47:00,37.2,31.6,26.88,NNW,338,4.2,4.2,80,0.00,,,0.00,VWS V14.01,2013-04-19 14:47:00,
2013-04-19 08:52:00,37.2,31.3,26.88,NNW,338,2.6,4.2,79,0.00,,,0.00,VWS V14.01,2013-04-19 14:52:00,
2013-04-19 08:57:00,37.4,31.5,26.88,NE,45,2.9,5.1,79,0.00,,,0.00,VWS V14.01,2013-04-19 14:57:00,
2013-04-19 09:02:00,37.7,31.8,26.88,NNE,22,0.0,2.4,79,0.00,,,0.00,VWS V14.01,2013-04-19 15:02:00,
2013-04-19 09:07:00,37.7,31.5,26.88,NNW,338,1.3,3.1,78,0.00,,,0.00,VWS V14.01,2013-04-19 15:07:00,
2013-04-19 09:12:00,37.9,32.0,26.88,North,0,0.8,3.1,79,0.00,,,0.00,VWS V14.01,2013-04-19 15:12:00,
2013-04-19 09:17:00,37.9,32.0,26.88,NNW,338,3.8,5.3,79,0.00,,,0.00,VWS V14.01,2013-04-19 15:17:00,
2013-04-19 09:22:00,38.1,31.9,26.89,North,0,2.9,5.3,78,0.00,,,0.00,VWS V14.01,2013-04-19 15:22:00,
2013-04-19 09:27:00,37.9,31.7,26.89,NNW,338,6.0,6.0,78,0.00,,,0.00,VWS V14.01,2013-04-19 15:27:00,
2013-04-19 09:32:00,37.7,31.5,26.89,NNW,338,3.5,3.5,78,0.00,,,0.00,VWS V14.01,2013-04-19 15:32:00,
2013-04-19 09:37:00,37.4,31.2,26.89,NNW,338,2.6,8.2,78,0.00,,,0.00,VWS V14.01,2013-04-19 15:37:00,
2013-04-19 09:42:00,36.8,30.6,26.89,North,0,8.5,9.6,78,0.00,,,0.00,VWS V14.01,2013-04-19 15:42:00,
2013-04-19 09:47:00,36.3,30.4,26.90,NNW,338,5.5,5.5,79,0.00,,,0.00,VWS V14.01,2013-04-19 15:47:00,
2013-04-19 09:52:00,36.3,30.4,26.89,NNW,338,2.0,6.7,79,0.00,,,0.00,VWS V14.01,2013-04-19 15:52:00,
2013-04-19 09:58:00,36.3,30.4,26.90,NNW,338,8.7,8.7,79,0.00,,,0.00,VWS V14.01,2013-04-19 15:58:00,
2013-04-19 10:03:00,36.3,30.4,26.90,NNW,338,6.0,8.7,79,0.00,,,0.00,VWS V14.01,2013-04-19 16:03:00,
2013-04-19 10:08:00,36.3,30.4,26.91,NNW,338,6.0,6.0,79,0.00,,,0.00,VWS V14.01,2013-04-19 16:08:00,
2013-04-19 10:13:00,36.3,30.4,26.90,NNW,338,5.8,7.1,79,0.00,,,0.00,VWS V14.01,2013-04-19 16:13:00,
2013-04-19 10:18:00,36.3,30.1,26.91,NW,315,5.3,7.1,78,0.00,,,0.00,VWS V14.01,2013-04-19 16:18:00,
2013-04-19 10:23:00,36.5,30.3,26.91,NW,315,10.2,10.2,78,0.00,,,0.00,VWS V14.01,2013-04-19 16:23:00,
2013-04-19 10:28:00,36.5,30.3,26.91,NW,315,10.5,11.1,78,0.00,,,0.00,VWS V14.01,2013-04-19 16:28:00,
2013-04-19 10:33:00,36.3,29.8,26.91,NW,315,8.2,11.1,77,0.00,,,0.00,VWS V14.01,2013-04-19 16:33:00,
2013-04-19 10:39:00,36.3,29.8,26.91,NNW,338,6.7,12.3,77,0.00,,,0.00,VWS V14.01,2013-04-19 16:39:00,
2013-04-19 10:44:00,36.8,30.6,26.91,NNW,338,7.1,12.3,78,0.00,,,0.00,VWS V14.01,2013-04-19 16:44:00,
2013-04-19 10:49:00,37.0,30.5,26.91,NNW,338,5.5,12.3,77,0.00,,,0.00,VWS V14.01,2013-04-19 16:49:00,
2013-04-19 10:54:00,37.2,31.0,26.91,NNW,338,5.3,12.3,78,0.00,,,0.00,VWS V14.01,2013-04-19 16:54:00,
2013-04-19 10:59:00,37.7,31.1,26.91,NNW,338,6.9,12.3,77,0.00,,,0.00,VWS V14.01,2013-04-19 16:59:00,
2013-04-19 11:04:00,37.9,31.4,26.92,North,0,4.9,12.3,77,0.00,,,0.00,VWS V14.01,2013-04-19 17:04:00,
2013-04-19 11:09:00,38.3,31.4,26.91,NW,315,4.4,4.4,76,0.00,,,0.00,VWS V14.01,2013-04-19 17:09:00,
2013-04-19 11:14:00,38.4,31.2,26.91,North,0,2.2,7.6,75,0.00,,,0.00,VWS V14.01,2013-04-19 17:14:00,
2013-04-19 11:19:00,39.0,31.8,26.92,NNW,338,6.7,7.6,75,0.00,,,0.00,VWS V14.01,2013-04-19 17:19:00,
2013-04-19 11:24:00,39.5,31.9,26.92,NNW,338,2.0,7.6,74,0.00,,,0.00,VWS V14.01,2013-04-19 17:24:00,
2013-04-19 11:29:00,39.7,31.8,26.92,North,0,5.1,7.6,73,0.00,,,0.00,VWS V14.01,2013-04-19 17:29:00,
2013-04-19 11:34:00,39.7,31.8,26.92,WNW,292,0.0,7.6,73,0.00,,,0.00,VWS V14.01,2013-04-19 17:34:00,
2013-04-19 11:39:00,40.1,32.5,26.92,North,0,4.6,7.6,74,0.00,,,0.00,VWS V14.01,2013-04-19 17:39:00,
2013-04-19 11:45:00,40.8,32.8,26.91,North,0,6.4,7.6,73,0.00,,,0.00,VWS V14.01,2013-04-19 17:45:00,
2013-04-19 11:50:00,41.9,33.5,26.91,NNW,338,5.1,7.8,72,0.00,,,0.00,VWS V14.01,2013-04-19 17:50:00,
2013-04-19 11:55:00,42.2,33.5,26.91,NNW,338,2.2,7.8,71,0.00,,,0.00,VWS V14.01,2013-04-19 17:55:00,
2013-04-19 12:00:00,42.6,33.5,26.91,NNW,338,3.5,7.8,70,0.00,,,0.00,VWS V14.01,2013-04-19 18:00:00,
2013-04-19 12:05:00,42.6,33.2,26.91,North,0,9.6,9.6,69,0.00,,,0.00,VWS V14.01,2013-04-19 18:05:00,
2013-04-19 12:10:00,42.9,33.4,26.91,NNW,338,9.1,9.6,69,0.00,,,0.00,VWS V14.01,2013-04-19 18:10:00,
2013-04-19 12:15:00,42.8,33.0,26.91,NW,315,3.8,9.6,68,0.00,,,0.00,VWS V14.01,2013-04-19 18:15:00,
2013-04-19 12:20:00,42.4,33.0,26.90,North,0,4.9,6.4,69,0.00,,,0.00,VWS V14.01,2013-04-19 18:20:00,
2013-04-19 12:25:00,42.0,32.6,26.91,NNE,22,3.5,7.1,69,0.00,,,0.00,VWS V14.01,2013-04-19 18:25:00,
2013-04-19 12:30:00,41.9,32.5,26.91,North,0,4.0,7.1,69,0.00,,,0.00,VWS V14.01,2013-04-19 18:30:00,
2013-04-19 12:35:00,41.9,32.5,26.91,North,0,0.0,4.6,69,0.00,,,0.00,VWS V14.01,2013-04-19 18:35:00,
2013-04-19 12:40:00,41.9,32.8,26.91,NNE,22,3.5,4.6,70,0.00,,,0.00,VWS V14.01,2013-04-19 18:40:00,
2013-04-19 12:45:00,42.0,32.6,26.91,NNW,338,4.6,6.2,69,0.00,,,0.00,VWS V14.01,2013-04-19 18:45:00,
2013-04-19 12:50:00,42.0,32.6,26.91,NW,315,4.6,4.6,69,0.00,,,0.00,VWS V14.01,2013-04-19 18:50:00,
2013-04-19 12:55:00,42.0,32.6,26.90,NNW,338,6.2,6.2,69,0.00,,,0.00,VWS V14.01,2013-04-19 18:55:00,
2013-04-19 13:00:00,42.0,32.6,26.91,North,0,2.0,6.2,69,0.00,,,0.00,VWS V14.01,2013-04-19 19:00:00,
2013-04-19 13:05:00,41.7,32.3,26.91,NW,315,0.0,6.2,69,0.00,,,0.00,VWS V14.01,2013-04-19 19:05:00,
2013-04-19 13:10:00,41.9,32.5,26.91,NNW,338,0.0,6.2,69,0.00,,,0.00,VWS V14.01,2013-04-19 19:10:00,
2013-04-19 13:15:00,42.0,32.6,26.91,NNW,338,4.6,6.2,69,0.00,,,0.00,VWS V14.01,2013-04-19 19:15:00,
2013-04-19 13:20:00,42.4,33.0,26.90,NNW,338,0.0,1.7,69,0.00,,,0.00,VWS V14.01,2013-04-19 19:20:00,
2013-04-19 13:25:00,42.6,33.2,26.91,NNW,338,1.1,2.4,69,0.00,,,0.00,VWS V14.01,2013-04-19 19:25:00,
2013-04-19 13:30:00,42.9,33.1,26.90,NNW,338,0.0,2.4,68,0.00,,,0.00,VWS V14.01,2013-04-19 19:30:00,
2013-04-19 13:35:00,43.7,33.5,26.90,WNW,292,0.0,4.9,67,0.00,,,0.00,VWS V14.01,2013-04-19 19:35:00,
2013-04-19 13:40:00,44.2,33.6,26.90,North,0,7.6,7.6,66,0.00,,,0.00,VWS V14.01,2013-04-19 19:40:00,
2013-04-19 13:45:00,44.2,33.2,26.90,North,0,3.3,7.6,65,0.00,,,0.00,VWS V14.01,2013-04-19 19:45:00,
2013-04-19 13:51:00,44.2,32.8,26.90,NW,315,2.9,4.4,64,0.00,,,0.00,VWS V14.01,2013-04-19 19:51:00,
2013-04-19 13:56:00,44.4,33.0,26.90,NNW,338,4.6,4.6,64,0.00,,,0.00,VWS V14.01,2013-04-19 19:56:00,
2013-04-19 14:01:00,44.9,33.5,26.90,NNW,338,3.1,4.6,64,0.00,,,0.00,VWS V14.01,2013-04-19 20:01:00,
2013-04-19 14:06:00,45.1,32.9,26.90,NNW,338,0.0,5.3,62,0.00,,,0.00,VWS V14.01,2013-04-19 20:06:00,
2013-04-19 14:11:00,44.9,32.7,26.89,North,0,2.4,5.3,62,0.00,,,0.00,VWS V14.01,2013-04-19 20:11:00,
2013-04-19 14:16:00,44.9,32.7,26.89,NNW,338,0.0,0.0,62,0.00,,,0.00,VWS V14.01,2013-04-19 20:16:00,
2013-04-19 14:21:00,45.1,33.3,26.89,North,0,0.0,0.0,63,0.00,,,0.00,VWS V14.01,2013-04-19 20:21:00,
2013-04-19 14:26:00,45.6,33.3,26.89,NNW,338,0.0,0.0,62,0.00,,,0.00,VWS V14.01,2013-04-19 20:26:00,
2013-04-19 14:31:00,46.9,33.8,26.89,NNE,22,0.0,0.0,60,0.00,,,0.00,VWS V14.01,2013-04-19 20:31:00,
2013-04-19 14:36:00,47.4,34.2,26.89,NNE,22,0.0,0.0,60,0.00,,,0.00,VWS V14.01,2013-04-19 20:36:00,
2013-04-19 14:41:00,48.0,34.4,26.89,NNW,338,0.0,0.0,59,0.00,,,0.00,VWS V14.01,2013-04-19 20:41:00,
2013-04-19 14:46:00,48.7,34.2,26.89,NNE,22,0.0,0.0,57,0.00,,,0.00,VWS V14.01,2013-04-19 20:46:00,
2013-04-19 14:51:00,48.9,33.9,26.89,ENE,68,3.5,3.5,56,0.00,,,0.00,VWS V14.01,2013-04-19 20:51:00,
2013-04-19 14:56:00,49.2,34.2,26.89,NE,45,0.0,3.5,56,0.00,,,0.00,VWS V14.01,2013-04-19 20:56:00,
2013-04-19 15:01:00,49.6,33.7,26.89,NNE,22,0.0,0.0,54,0.00,,,0.00,VWS V14.01,2013-04-19 21:01:00,
2013-04-19 15:07:00,46.8,34.0,26.89,NNW,338,0.0,0.0,61,0.00,,,0.00,VWS V14.01,2013-04-19 21:07:00,
2013-04-19 15:12:00,50.1,33.7,26.88,NNE,22,5.1,5.1,53,0.00,,,0.00,VWS V14.01,2013-04-19 21:12:00,
2013-04-19 15:17:00,49.8,32.9,26.88,NNW,338,2.4,5.1,52,0.00,,,0.00,VWS V14.01,2013-04-19 21:17:00,
2013-04-19 15:22:00,49.6,32.7,26.88,North,0,0.0,5.1,52,0.00,,,0.00,VWS V14.01,2013-04-19 21:22:00,
2013-04-19 15:27:00,49.6,32.7,26.88,NNW,338,0.0,5.1,52,0.00,,,0.00,VWS V14.01,2013-04-19 21:27:00,
2013-04-19 15:32:00,49.6,32.7,26.88,NNW,338,0.0,5.1,52,0.00,,,0.00,VWS V14.01,2013-04-19 21:32:00,
2013-04-19 15:38:00,49.8,32.9,26.88,SE,135,1.5,5.1,52,0.00,,,0.00,VWS V14.01,2013-04-19 21:38:00,
2013-04-19 15:43:00,49.4,32.5,26.89,ESE,112,0.0,5.1,52,0.00,,,0.00,VWS V14.01,2013-04-19 21:43:00,
2013-04-19 15:48:00,48.5,31.7,26.88,ESE,112,0.0,0.0,52,0.00,,,0.00,VWS V14.01,2013-04-19 21:48:00,
2013-04-19 15:53:00,48.2,31.9,26.88,ESE,112,0.0,0.0,53,0.00,,,0.00,VWS V14.01,2013-04-19 21:53:00,
2013-04-19 15:58:00,48.0,31.7,26.89,South,180,0.0,0.0,53,0.00,,,0.00,VWS V14.01,2013-04-19 21:58:00,
2013-04-19 16:03:00,47.1,31.3,26.88,ESE,112,3.5,3.5,54,0.00,,,0.00,VWS V14.01,2013-04-19 22:03:00,
2013-04-19 16:08:00,46.2,30.9,26.88,ESE,112,1.1,3.5,55,0.00,,,0.00,VWS V14.01,2013-04-19 22:08:00,
2013-04-19 16:13:00,45.6,30.8,26.88,East,90,2.4,3.5,56,0.00,,,0.00,VWS V14.01,2013-04-19 22:13:00,
2013-04-19 16:18:00,45.1,30.8,26.88,SSE,158,2.6,7.6,57,0.00,,,0.00,VWS V14.01,2013-04-19 22:18:00,
2013-04-19 16:23:00,44.6,31.2,26.88,ESE,112,6.0,7.6,59,0.00,,,0.00,VWS V14.01,2013-04-19 22:23:00,
2013-04-19 16:28:00,44.0,30.6,26.88,SSE,158,9.1,9.1,59,0.00,,,0.00,VWS V14.01,2013-04-19 22:28:00,
2013-04-19 16:33:00,43.3,30.8,26.88,SE,135,8.9,9.3,61,0.00,,,0.00,VWS V14.01,2013-04-19 22:33:00,
2013-04-19 16:38:00,42.9,30.8,26.88,ESE,112,12.9,12.9,62,0.00,,,0.00,VWS V14.01,2013-04-19 22:38:00,
2013-04-19 16:43:00,42.9,31.2,26.87,ESE,112,8.7,12.9,63,0.00,,,0.00,VWS V14.01,2013-04-19 22:43:00,
2013-04-19 16:48:00,43.5,31.8,26.88,ESE,112,6.7,6.9,63,0.00,,,0.00,VWS V14.01,2013-04-19 22:48:00,
2013-04-19 16:53:00,43.7,31.5,26.88,SSE,158,8.5,8.5,62,0.00,,,0.00,VWS V14.01,2013-04-19 22:53:00,
2013-04-19 16:58:00,43.7,32.0,26.87,SSE,158,9.1,9.1,63,0.00,,,0.00,VWS V14.01,2013-04-19 22:58:00,
2013-04-19 17:03:00,43.5,31.8,26.87,SE,135,9.1,9.1,63,0.00,,,0.00,VWS V14.01,2013-04-19 23:03:00,
2013-04-19 17:08:00,43.3,31.6,26.88,SE,135,8.0,9.1,63,0.00,,,0.00,VWS V14.01,2013-04-19 23:08:00,
2013-04-19 17:13:00,42.6,31.3,26.88,SE,135,10.0,10.0,64,0.00,,,0.00,VWS V14.01,2013-04-19 23:13:00,
2013-04-19 17:18:00,42.4,31.5,26.88,ESE,112,9.6,9.6,65,0.00,,,0.00,VWS V14.01,2013-04-19 23:18:00,
2013-04-19 17:23:00,42.2,31.3,26.88,ESE,112,9.3,9.6,65,0.00,,,0.00,VWS V14.01,2013-04-19 23:23:00,
2013-04-19 17:28:00,42.0,31.5,26.88,SE,135,6.9,9.6,66,0.00,,,0.00,VWS V14.01,2013-04-19 23:28:00,
2013-04-19 17:34:00,41.5,30.6,26.88,ESE,112,9.6,9.6,65,0.00,,,0.00,VWS V14.01,2013-04-19 23:34:00,
2013-04-19 17:39:00,40.8,30.3,26.88,SE,135,9.1,9.6,66,0.00,,,0.00,VWS V14.01,2013-04-19 23:39:00,
2013-04-19 17:44:00,40.2,30.1,26.88,ESE,112,7.8,9.6,67,0.00,,,0.00,VWS V14.01,2013-04-19 23:44:00,
2013-04-19 17:49:00,39.9,29.9,26.88,SE,135,6.9,6.9,67,0.00,,,0.00,VWS V14.01,2013-04-19 23:49:00,
2013-04-19 17:54:00,39.5,29.8,26.88,ESE,112,6.4,7.1,68,0.00,,,0.00,VWS V14.01,2013-04-19 23:54:00,
2013-04-19 17:59:00,39.3,30.0,26.87,SE,135,6.9,7.1,69,0.00,,,0.00,VWS V14.01,2013-04-19 23:59:00,
2013-04-19 18:04:00,39.3,30.4,26.88,SE,135,7.8,9.6,70,0.00,,,0.00,VWS V14.01,2013-04-20 00:04:00,
2013-04-19 18:09:00,39.3,30.0,26.88,SSE,158,7.1,9.6,69,0.00,,,0.00,VWS V14.01,2013-04-20 00:09:00,
2013-04-19 18:14:00,39.0,30.1,26.88,SSE,158,13.1,13.1,70,0.00,,,0.00,VWS V14.01,2013-04-20 00:14:00,
2013-04-19 18:19:00,39.0,30.1,26.88,SE,135,14.0,14.0,70,0.00,,,0.00,VWS V14.01,2013-04-20 00:19:00,
2013-04-19 18:24:00,38.8,30.2,26.88,ESE,112,10.7,14.0,71,0.00,,,0.00,VWS V14.01,2013-04-20 00:24:00,
2013-04-19 18:29:00,38.6,30.0,26.88,ESE,112,5.1,14.0,71,0.00,,,0.00,VWS V14.01,2013-04-20 00:29:00,
2013-04-19 18:34:00,38.4,30.2,26.87,SE,135,5.8,7.8,72,0.00,,,0.00,VWS V14.01,2013-04-20 00:34:00,
2013-04-19 18:39:00,38.3,30.4,26.88,SE,135,9.3,9.3,73,0.00,,,0.00,VWS V14.01,2013-04-20 00:39:00,
2013-04-19 18:44:00,38.3,30.4,26.88,South,180,8.7,9.3,73,0.00,,,0.00,VWS V14.01,2013-04-20 00:44:00,
2013-04-19 18:49:00,38.1,30.2,26.88,South,180,7.1,7.1,73,0.00,,,0.00,VWS V14.01,2013-04-20 00:49:00,
2013-04-19 18:54:00,37.9,30.0,26.87,SSE,158,6.0,7.1,73,0.00,,,0.00,VWS V14.01,2013-04-20 00:54:00,
2013-04-19 18:59:00,37.7,30.2,26.88,SSE,158,5.1,7.1,74,0.00,,,0.00,VWS V14.01,2013-04-20 00:59:00,
2013-04-19 19:04:00,37.5,30.3,26.87,SE,135,5.5,7.3,75,0.00,,,0.00,VWS V14.01,2013-04-20 01:04:00,
2013-04-19 19:09:00,37.4,30.2,26.87,SSE,158,4.9,7.3,75,0.00,,,0.00,VWS V14.01,2013-04-20 01:09:00,
2013-04-19 19:15:00,37.2,30.0,26.87,SSE,158,5.3,7.3,75,0.00,,,0.00,VWS V14.01,2013-04-20 01:15:00,
2013-04-19 19:20:00,37.0,30.1,26.87,SSE,158,4.4,5.5,76,0.00,,,0.00,VWS V14.01,2013-04-20 01:20:00,
2013-04-19 19:25:00,36.8,30.0,26.87,ESE,112,5.3,5.5,76,0.00,,,0.00,VWS V14.01,2013-04-20 01:25:00,
2013-04-19 19:30:00,36.6,29.8,26.86,SE,135,5.8,5.8,76,0.00,,,0.00,VWS V14.01,2013-04-20 01:30:00,
2013-04-19 19:35:00,36.6,29.8,26.87,SE,135,2.9,4.4,76,0.00,,,0.00,VWS V14.01,2013-04-20 01:35:00,
2013-04-19 19:40:00,36.5,29.7,26.87,ESE,112,3.1,5.1,76,0.00,,,0.00,VWS V14.01,2013-04-20 01:40:00,
2013-04-19 19:45:00,36.3,29.5,26.87,SE,135,3.8,5.1,76,0.00,,,0.00,VWS V14.01,2013-04-20 01:45:00,
2013-04-19 19:50:00,36.3,29.5,26.87,SE,135,5.5,5.5,76,0.00,,,0.00,VWS V14.01,2013-04-20 01:50:00,
2013-04-19 19:55:00,36.3,29.8,26.87,ESE,112,4.4,6.2,77,0.00,,,0.00,VWS V14.01,2013-04-20 01:55:00,
2013-04-19 20:00:00,36.3,29.8,26.87,ESE,112,6.0,6.2,77,0.00,,,0.00,VWS V14.01,2013-04-20 02:00:00,
2013-04-19 20:05:00,36.1,29.6,26.87,ESE,112,1.7,3.3,77,0.00,,,0.00,VWS V14.01,2013-04-20 02:05:00,
2013-04-19 20:10:00,36.1,29.6,26.87,ESE,112,0.8,3.5,77,0.00,,,0.00,VWS V14.01,2013-04-20 02:10:00,
2013-04-19 20:15:00,36.1,29.6,26.87,ESE,112,2.9,4.0,77,0.00,,,0.00,VWS V14.01,2013-04-20 02:15:00,
2013-04-19 20:20:00,36.1,29.9,26.88,ESE,112,0.0,0.0,78,0.00,,,0.00,VWS V14.01,2013-04-20 02:20:00,
2013-04-19 20:25:00,36.1,29.9,26.88,SE,135,0.0,0.6,78,0.00,,,0.00,VWS V14.01,2013-04-20 02:25:00,
2013-04-19 20:30:00,35.9,29.7,26.87,South,180,1.3,1.3,78,0.00,,,0.00,VWS V14.01,2013-04-20 02:30:00,
2013-04-19 20:35:00,35.9,29.7,26.87,SE,135,3.3,4.0,78,0.00,,,0.00,VWS V14.01,2013-04-20 02:35:00,
2013-04-19 20:40:00,35.7,29.8,26.88,SE,135,5.3,5.3,79,0.00,,,0.00,VWS V14.01,2013-04-20 02:40:00,
2013-04-19 20:46:00,35.4,29.9,26.88,SSE,158,5.8,8.2,80,0.00,,,0.00,VWS V14.01,2013-04-20 02:46:00,
2013-04-19 20:51:00,35.2,30.0,26.88,SSE,158,3.8,9.6,81,0.00,,,0.00,VWS V14.01,2013-04-20 02:51:00,
2013-04-19 20:56:00,35.2,30.0,26.88,SE,135,3.5,9.6,81,0.00,,,0.00,VWS V14.01,2013-04-20 02:56:00,
2013-04-19 21:01:00,35.0,29.8,26.88,ESE,112,8.2,8.2,81,0.00,,,0.00,VWS V14.01,2013-04-20 03:01:00,
2013-04-19 21:06:00,35.0,30.1,26.88,SE,135,3.8,8.2,82,0.00,,,0.00,VWS V14.01,2013-04-20 03:06:00,
2013-04-19 21:11:00,34.8,29.9,26.88,SE,135,5.8,8.2,82,0.00,,,0.00,VWS V14.01,2013-04-20 03:11:00,
2013-04-19 21:16:00,34.8,29.9,26.88,SE,135,5.3,5.3,82,0.00,,,0.00,VWS V14.01,2013-04-20 03:16:00,
2013-04-19 21:21:00,34.8,30.2,26.88,ESE,112,3.5,5.3,83,0.00,,,0.00,VWS V14.01,2013-04-20 03:21:00,
2013-04-19 21:26:00,34.8,30.2,26.88,East,90,2.2,5.5,83,0.00,,,0.00,VWS V14.01,2013-04-20 03:26:00,
2013-04-19 21:31:00,34.8,30.2,26.87,ESE,112,3.3,3.3,83,0.00,,,0.00,VWS V14.01,2013-04-20 03:31:00,
2013-04-19 21:36:00,34.8,30.2,26.87,ESE,112,3.3,3.3,83,0.00,,,0.00,VWS V14.01,2013-04-20 03:36:00,
2013-04-19 21:41:00,34.7,30.1,26.88,ESE,112,4.0,4.0,83,0.00,,,0.00,VWS V14.01,2013-04-20 03:41:00,
2013-04-19 21:46:00,34.8,30.2,26.87,ESE,112,2.9,2.9,83,0.00,,,0.00,VWS V14.01,2013-04-20 03:46:00,
2013-04-19 21:51:00,34.7,30.1,26.88,SE,135,3.1,3.1,83,0.00,,,0.00,VWS V14.01,2013-04-20 03:51:00,
2013-04-19 21:56:00,34.7,30.1,26.87,SE,135,3.5,3.8,83,0.00,,,0.00,VWS V14.01,2013-04-20 03:56:00,
2013-04-19 22:01:00,34.7,30.1,26.87,SE,135,6.7,6.7,83,0.00,,,0.00,VWS V14.01,2013-04-20 04:01:00,
2013-04-19 22:02:00,34.7,30.1,26.87,SE,135,6.7,6.7,83,0.00,,,0.00,VWS V14.01,2013-04-20 04:02:00,
2013-04-19 22:03:00,34.7,30.1,26.87,SE,135,6.4,6.7,83,0.00,,,0.00,VWS V14.01,2013-04-20 04:03:00,
2013-04-19 22:05:00,34.7,30.1,26.87,SE,135,5.1,6.7,83,0.00,,,0.00,VWS V14.01,2013-04-20 04:05:00,
2013-04-19 22:07:00,34.7,30.1,26.87,SSE,158,8.5,8.5,83,0.00,,,0.00,VWS V14.01,2013-04-20 04:07:00,
2013-04-19 22:12:00,34.7,30.1,26.86,SE,135,6.9,8.5,83,0.00,,,0.00,VWS V14.01,2013-04-20 04:12:00,
2013-04-19 22:17:00,34.7,30.1,26.87,SE,135,8.5,8.5,83,0.00,,,0.00,VWS V14.01,2013-04-20 04:17:00,
2013-04-19 22:22:00,34.7,30.1,26.87,ESE,112,6.0,8.5,83,0.00,,,0.00,VWS V14.01,2013-04-20 04:22:00,
2013-04-19 22:27:00,34.5,30.2,26.87,ESE,112,7.6,8.5,84,0.00,,,0.00,VWS V14.01,2013-04-20 04:27:00,
2013-04-19 22:32:00,34.5,30.2,26.86,SE,135,6.7,6.7,84,0.00,,,0.00,VWS V14.01,2013-04-20 04:32:00,
2013-04-19 22:37:00,34.5,30.2,26.87,ESE,112,6.7,6.9,84,0.00,,,0.00,VWS V14.01,2013-04-20 04:37:00,
2013-04-19 22:42:00,34.5,30.2,26.86,SE,135,5.1,6.9,84,0.00,,,0.00,VWS V14.01,2013-04-20 04:42:00,
2013-04-19 22:47:00,34.5,30.2,26.86,SE,135,8.9,8.9,84,0.00,,,0.00,VWS V14.01,2013-04-20 04:47:00,
2013-04-19 22:52:00,34.5,30.2,26.86,SE,135,8.9,8.9,84,0.00,,,0.00,VWS V14.01,2013-04-20 04:52:00,
2013-04-19 22:58:00,34.5,30.2,26.85,SE,135,8.0,8.9,84,0.00,,,0.00,VWS V14.01,2013-04-20 04:58:00,
2013-04-19 23:03:00,34.5,30.2,26.86,SE,135,4.9,8.0,84,0.00,,,0.00,VWS V14.01,2013-04-20 05:03:00,
2013-04-19 23:08:00,34.5,30.2,26.86,ESE,112,6.7,8.0,84,0.00,,,0.00,VWS V14.01,2013-04-20 05:08:00,
2013-04-19 23:13:00,34.3,30.0,26.85,ESE,112,8.5,8.5,84,0.00,,,0.00,VWS V14.01,2013-04-20 05:13:00,
2013-04-19 23:18:00,34.3,30.0,26.86,ESE,112,6.2,9.8,84,0.00,,,0.00,VWS V14.01,2013-04-20 05:18:00,
2013-04-19 23:23:00,34.3,30.0,26.86,SE,135,10.9,10.9,84,0.00,,,0.00,VWS V14.01,2013-04-20 05:23:00,
2013-04-19 23:28:00,34.1,29.8,26.86,ESE,112,8.0,11.1,84,0.00,,,0.00,VWS V14.01,2013-04-20 05:28:00,
2013-04-19 23:33:00,34.1,29.8,26.86,SE,135,9.1,9.1,84,0.00,,,0.00,VWS V14.01,2013-04-20 05:33:00,
2013-04-19 23:38:00,34.1,29.8,26.86,SE,135,8.0,9.1,84,0.00,,,0.00,VWS V14.01,2013-04-20 05:38:00,
2013-04-19 23:43:00,34.1,29.8,26.86,SSE,158,8.0,9.1,84,0.00,,,0.00,VWS V14.01,2013-04-20 05:43:00,
2013-04-19 23:48:00,34.1,29.8,26.86,South,180,3.8,5.1,84,0.00,,,0.00,VWS V14.01,2013-04-20 05:48:00,
2013-04-19 23:53:00,34.1,30.1,26.86,SE,135,8.2,8.2,85,0.00,,,0.00,VWS V14.01,2013-04-20 05:53:00,
2013-04-19 23:58:00,34.1,30.1,26.86,SSE,158,9.8,9.8,85,0.00,,,0.00,VWS V14.01,2013-04-20 05:58:00,